Year,Month,Day,Hour,Minute,Value (Times are PST for temperature in C)
2012,05,17,00,00,10.40
2012,05,17,00,01,10.40
2012,05,17,00,02,10.40
2012,05,17,00,03,10.40
2012,05,17,00,04,10.40
2012,05,17,00,05,10.40
2012,05,17,00,06,10.40
2012,05,17,00,07,10.40
2012,05,17,00,08,10.40
2012,05,17,00,09,10.40
2012,05,17,00,10,10.40
2012,05,17,00,11,10.30
2012,05,17,00,12,10.30
2012,05,17,00,13,10.30
2012,05,17,00,14,10.30
2012,05,17,00,15,10.30
2012,05,17,00,16,10.30
2012,05,17,00,17,10.30
2012,05,17,00,18,10.30
2012,05,17,00,19,10.30
2012,05,17,00,20,10.30
2012,05,17,00,21,10.30
2012,05,17,00,22,10.20
2012,05,17,00,23,10.20
2012,05,17,00,24,10.20
2012,05,17,00,25,10.20
2012,05,17,00,26,10.20
2012,05,17,00,27,10.20
2012,05,17,00,28,10.20
2012,05,17,00,29,10.10
2012,05,17,00,30,10.10
2012,05,17,00,31,10.10
2012,05,17,00,32,10.10
2012,05,17,00,33,10.10
2012,05,17,00,34,10.10
2012,05,17,00,35,10.10
2012,05,17,00,36,10.10
2012,05,17,00,37,10.10
2012,05,17,00,38,10.00
2012,05,17,00,39,9.90
2012,05,17,00,40,9.90
2012,05,17,00,41,9.90
2012,05,17,00,42,9.90
2012,05,17,00,43,9.90
2012,05,17,00,44,9.90
2012,05,17,00,45,9.90
2012,05,17,00,46,9.90
2012,05,17,00,47,9.90
2012,05,17,00,48,9.90
2012,05,17,00,49,9.90
2012,05,17,00,50,9.90
2012,05,17,00,51,9.90
2012,05,17,00,52,9.90
2012,05,17,00,53,9.90
2012,05,17,00,54,9.80
2012,05,17,00,55,9.80
2012,05,17,00,56,9.80
2012,05,17,00,57,9.70
2012,05,17,00,58,9.70
2012,05,17,00,59,9.70
2012,05,17,01,00,9.70
2012,05,17,01,01,9.70
2012,05,17,01,02,9.60
2012,05,17,01,03,9.60
2012,05,17,01,04,9.50
2012,05,17,01,05,9.40
2012,05,17,01,06,9.40
2012,05,17,01,07,9.30
2012,05,17,01,08,9.30
2012,05,17,01,09,9.20
2012,05,17,01,10,9.20
2012,05,17,01,11,9.20
2012,05,17,01,12,9.20
2012,05,17,01,13,9.20
2012,05,17,01,14,9.20
2012,05,17,01,15,9.10
2012,05,17,01,16,9.10
2012,05,17,01,17,9.00
2012,05,17,01,18,9.00
2012,05,17,01,19,9.00
2012,05,17,01,20,8.90
2012,05,17,01,21,8.90
2012,05,17,01,22,8.90
2012,05,17,01,23,8.80
2012,05,17,01,24,8.80
2012,05,17,01,25,8.80
2012,05,17,01,26,8.70
2012,05,17,01,27,8.70
2012,05,17,01,28,8.70
2012,05,17,01,29,8.70
2012,05,17,01,30,8.80
2012,05,17,01,31,8.70
2012,05,17,01,32,8.70
2012,05,17,01,33,8.80
2012,05,17,01,34,8.80
2012,05,17,01,35,8.80
2012,05,17,01,36,8.80
2012,05,17,01,37,8.80
2012,05,17,01,38,8.80
2012,05,17,01,39,8.70
2012,05,17,01,40,8.70
2012,05,17,01,41,8.70
2012,05,17,01,42,8.70
2012,05,17,01,43,8.70
2012,05,17,01,44,8.70
2012,05,17,01,45,8.70
2012,05,17,01,46,8.70
2012,05,17,01,47,8.70
2012,05,17,01,48,8.70
2012,05,17,01,49,8.70
2012,05,17,01,50,8.70
2012,05,17,01,51,8.70
2012,05,17,01,52,8.70
2012,05,17,01,53,8.70
2012,05,17,01,54,8.70
2012,05,17,01,55,8.60
2012,05,17,01,56,8.60
2012,05,17,01,57,8.60
2012,05,17,01,58,8.60
2012,05,17,01,59,8.60
2012,05,17,02,00,8.60
2012,05,17,02,01,8.50
2012,05,17,02,02,8.50
2012,05,17,02,03,8.50
2012,05,17,02,04,8.50
2012,05,17,02,05,8.50
2012,05,17,02,06,8.50
2012,05,17,02,07,8.50
2012,05,17,02,08,8.50
2012,05,17,02,09,8.40
2012,05,17,02,10,8.40
2012,05,17,02,11,8.40
2012,05,17,02,12,8.40
2012,05,17,02,13,8.40
2012,05,17,02,14,8.40
2012,05,17,02,15,8.40
2012,05,17,02,16,8.40
2012,05,17,02,17,8.30
2012,05,17,02,18,8.30
2012,05,17,02,19,8.40
2012,05,17,02,20,8.40
2012,05,17,02,21,8.40
2012,05,17,02,22,8.40
2012,05,17,02,23,8.50
2012,05,17,02,24,8.50
2012,05,17,02,25,8.50
2012,05,17,02,26,8.50
2012,05,17,02,27,8.50
2012,05,17,02,28,8.50
2012,05,17,02,29,8.50
2012,05,17,02,30,8.50
2012,05,17,02,31,8.50
2012,05,17,02,32,8.50
2012,05,17,02,33,8.50
2012,05,17,02,34,8.50
2012,05,17,02,35,8.50
2012,05,17,02,36,8.50
2012,05,17,02,37,8.50
2012,05,17,02,38,8.50
2012,05,17,02,39,8.50
2012,05,17,02,40,8.50
2012,05,17,02,41,8.50
2012,05,17,02,42,8.50
2012,05,17,02,43,8.50
2012,05,17,02,44,8.50
2012,05,17,02,45,8.50
2012,05,17,02,46,8.50
2012,05,17,02,47,8.50
2012,05,17,02,48,8.50
2012,05,17,02,49,8.50
2012,05,17,02,50,8.50
2012,05,17,02,51,8.40
2012,05,17,02,52,8.40
2012,05,17,02,53,8.40
2012,05,17,02,54,8.40
2012,05,17,02,55,8.40
2012,05,17,02,56,8.40
2012,05,17,02,57,8.50
2012,05,17,02,58,8.50
2012,05,17,02,59,8.50
2012,05,17,03,00,8.50
2012,05,17,03,01,8.50
2012,05,17,03,02,8.40
2012,05,17,03,03,8.40
2012,05,17,03,04,8.40
2012,05,17,03,05,8.40
2012,05,17,03,06,8.40
2012,05,17,03,07,8.40
2012,05,17,03,08,8.40
2012,05,17,03,09,8.40
2012,05,17,03,10,8.40
2012,05,17,03,11,8.40
2012,05,17,03,12,8.40
2012,05,17,03,13,8.40
2012,05,17,03,14,8.40
2012,05,17,03,15,8.40
2012,05,17,03,16,8.40
2012,05,17,03,17,8.40
2012,05,17,03,18,8.40
2012,05,17,03,19,8.40
2012,05,17,03,20,8.40
2012,05,17,03,21,8.40
2012,05,17,03,22,8.40
2012,05,17,03,23,8.40
2012,05,17,03,24,8.30
2012,05,17,03,25,8.30
2012,05,17,03,26,8.30
2012,05,17,03,27,8.30
2012,05,17,03,28,8.30
2012,05,17,03,29,8.30
2012,05,17,03,30,8.20
2012,05,17,03,31,8.20
2012,05,17,03,32,8.20
2012,05,17,03,33,8.20
2012,05,17,03,34,8.20
2012,05,17,03,35,8.20
2012,05,17,03,36,8.20
2012,05,17,03,37,8.20
2012,05,17,03,38,8.20
2012,05,17,03,39,8.20
2012,05,17,03,40,8.10
2012,05,17,03,41,8.10
2012,05,17,03,42,8.10
2012,05,17,03,43,8.10
2012,05,17,03,44,8.00
2012,05,17,03,45,8.00
2012,05,17,03,46,8.00
2012,05,17,03,47,8.00
2012,05,17,03,48,7.90
2012,05,17,03,49,7.90
2012,05,17,03,50,7.90
2012,05,17,03,51,7.90
2012,05,17,03,52,7.90
2012,05,17,03,53,7.80
2012,05,17,03,54,7.80
2012,05,17,03,55,7.80
2012,05,17,03,56,7.80
2012,05,17,03,57,7.80
2012,05,17,03,58,7.80
2012,05,17,03,59,7.80
2012,05,17,04,00,7.80
2012,05,17,04,01,7.80
2012,05,17,04,02,7.80
2012,05,17,04,03,7.80
2012,05,17,04,04,7.80
2012,05,17,04,05,7.80
2012,05,17,04,06,7.90
2012,05,17,04,07,7.90
2012,05,17,04,08,7.90
2012,05,17,04,09,7.90
2012,05,17,04,10,7.90
2012,05,17,04,11,7.90
2012,05,17,04,12,7.90
2012,05,17,04,13,7.90
2012,05,17,04,14,8.00
2012,05,17,04,15,8.00
2012,05,17,04,16,8.00
2012,05,17,04,17,8.00
2012,05,17,04,18,8.00
2012,05,17,04,19,8.10
2012,05,17,04,20,8.10
2012,05,17,04,21,8.10
2012,05,17,04,22,8.10
2012,05,17,04,23,8.10
2012,05,17,04,24,8.10
2012,05,17,04,25,8.10
2012,05,17,04,26,8.10
2012,05,17,04,27,8.10
2012,05,17,04,28,8.20
2012,05,17,04,29,8.20
2012,05,17,04,30,8.20
2012,05,17,04,31,8.20
2012,05,17,04,32,8.20
2012,05,17,04,33,8.20
2012,05,17,04,34,8.20
2012,05,17,04,35,8.20
2012,05,17,04,36,8.10
2012,05,17,04,37,8.10
2012,05,17,04,38,8.10
2012,05,17,04,39,8.10
2012,05,17,04,40,8.10
2012,05,17,04,41,8.10
2012,05,17,04,42,8.10
2012,05,17,04,43,8.00
2012,05,17,04,44,8.00
2012,05,17,04,45,8.00
2012,05,17,04,46,8.00
2012,05,17,04,47,8.00
2012,05,17,04,48,8.00
2012,05,17,04,49,8.00
2012,05,17,04,50,8.00
2012,05,17,04,51,8.00
2012,05,17,04,52,8.00
2012,05,17,04,53,8.00
2012,05,17,04,54,8.00
2012,05,17,04,55,8.00
2012,05,17,04,56,8.00
2012,05,17,04,57,8.00
2012,05,17,04,58,8.00
2012,05,17,04,59,8.00
2012,05,17,05,00,8.00
2012,05,17,05,01,8.00
2012,05,17,05,02,8.00
2012,05,17,05,03,8.00
2012,05,17,05,04,8.00
2012,05,17,05,05,8.00
2012,05,17,05,06,8.10
2012,05,17,05,07,8.10
2012,05,17,05,08,8.10
2012,05,17,05,09,8.10
2012,05,17,05,10,8.10
2012,05,17,05,11,8.10
2012,05,17,05,12,8.10
2012,05,17,05,13,8.10
2012,05,17,05,14,8.10
2012,05,17,05,15,8.10
2012,05,17,05,16,8.10
2012,05,17,05,17,8.10
2012,05,17,05,18,8.10
2012,05,17,05,19,8.10
2012,05,17,05,20,8.10
2012,05,17,05,21,8.10
2012,05,17,05,22,8.10
2012,05,17,05,23,8.10
2012,05,17,05,24,8.10
2012,05,17,05,25,8.10
2012,05,17,05,26,8.00
2012,05,17,05,27,8.00
2012,05,17,05,28,8.00
2012,05,17,05,29,8.00
2012,05,17,05,30,8.00
2012,05,17,05,31,8.00
2012,05,17,05,32,8.00
2012,05,17,05,33,8.00
2012,05,17,05,34,8.00
2012,05,17,05,35,8.00
2012,05,17,05,36,8.00
2012,05,17,05,37,7.90
2012,05,17,05,38,7.90
2012,05,17,05,39,7.90
2012,05,17,05,40,7.90
2012,05,17,05,41,7.90
2012,05,17,05,42,7.90
2012,05,17,05,43,7.90
2012,05,17,05,44,7.90
2012,05,17,05,45,7.90
2012,05,17,05,46,7.90
2012,05,17,05,47,7.90
2012,05,17,05,48,7.90
2012,05,17,05,49,7.90
2012,05,17,05,50,7.90
2012,05,17,05,51,7.90
2012,05,17,05,52,7.90
2012,05,17,05,53,7.90
2012,05,17,05,54,7.90
2012,05,17,05,55,7.90
2012,05,17,05,56,7.80
2012,05,17,05,57,7.80
2012,05,17,05,58,7.80
2012,05,17,05,59,7.80
2012,05,17,06,00,7.90
2012,05,17,06,01,7.90
2012,05,17,06,02,7.90
2012,05,17,06,03,7.90
2012,05,17,06,04,7.90
2012,05,17,06,05,7.90
2012,05,17,06,06,7.90
2012,05,17,06,07,7.90
2012,05,17,06,08,7.90
2012,05,17,06,09,7.90
2012,05,17,06,10,7.90
2012,05,17,06,11,7.90
2012,05,17,06,12,7.90
2012,05,17,06,13,7.90
2012,05,17,06,14,8.00
2012,05,17,06,15,8.00
2012,05,17,06,16,8.00
2012,05,17,06,17,8.00
2012,05,17,06,18,8.00
2012,05,17,06,19,8.10
2012,05,17,06,20,8.10
2012,05,17,06,21,8.10
2012,05,17,06,22,8.20
2012,05,17,06,23,8.20
2012,05,17,06,24,8.20
2012,05,17,06,25,8.20
2012,05,17,06,26,8.20
2012,05,17,06,27,8.30
2012,05,17,06,28,8.30
2012,05,17,06,29,8.30
2012,05,17,06,30,8.40
2012,05,17,06,31,8.40
2012,05,17,06,32,8.40
2012,05,17,06,33,8.50
2012,05,17,06,34,8.50
2012,05,17,06,35,8.60
2012,05,17,06,36,8.70
2012,05,17,06,37,8.70
2012,05,17,06,38,8.70
2012,05,17,06,39,8.80
2012,05,17,06,40,8.80
2012,05,17,06,41,8.90
2012,05,17,06,42,8.90
2012,05,17,06,43,9.00
2012,05,17,06,44,9.00
2012,05,17,06,45,9.00
2012,05,17,06,46,9.10
2012,05,17,06,47,9.20
2012,05,17,06,48,9.20
2012,05,17,06,49,9.30
2012,05,17,06,50,9.40
2012,05,17,06,51,9.40
2012,05,17,06,52,9.50
2012,05,17,06,53,9.60
2012,05,17,06,54,9.70
2012,05,17,06,55,9.70
2012,05,17,06,56,9.80
2012,05,17,06,57,9.80
2012,05,17,06,58,9.90
2012,05,17,06,59,10.00
2012,05,17,07,00,10.10
2012,05,17,07,01,10.20
2012,05,17,07,02,10.30
2012,05,17,07,03,10.30
2012,05,17,07,04,10.40
2012,05,17,07,05,10.50
2012,05,17,07,06,10.60
2012,05,17,07,07,10.60
2012,05,17,07,08,10.70
2012,05,17,07,09,10.80
2012,05,17,07,10,10.80
2012,05,17,07,11,10.90
2012,05,17,07,12,10.90
2012,05,17,07,13,11.00
2012,05,17,07,14,11.10
2012,05,17,07,15,11.10
2012,05,17,07,16,11.20
2012,05,17,07,17,11.20
2012,05,17,07,18,11.20
2012,05,17,07,19,11.20
2012,05,17,07,20,11.20
2012,05,17,07,21,11.20
2012,05,17,07,22,11.20
2012,05,17,07,23,11.30
2012,05,17,07,24,11.30
2012,05,17,07,25,11.30
2012,05,17,07,26,11.40
2012,05,17,07,27,11.30
2012,05,17,07,28,11.30
2012,05,17,07,29,11.30
2012,05,17,07,30,11.40
2012,05,17,07,31,11.40
2012,05,17,07,32,11.40
2012,05,17,07,33,11.40
2012,05,17,07,34,11.40
2012,05,17,07,35,11.40
2012,05,17,07,36,11.30
2012,05,17,07,37,11.30
2012,05,17,07,38,11.30
2012,05,17,07,39,11.40
2012,05,17,07,40,11.40
2012,05,17,07,41,11.40
2012,05,17,07,42,11.40
2012,05,17,07,43,11.40
2012,05,17,07,44,11.50
2012,05,17,07,45,11.60
2012,05,17,07,46,11.60
2012,05,17,07,47,11.60
2012,05,17,07,48,11.60
2012,05,17,07,49,11.70
2012,05,17,07,50,11.70
2012,05,17,07,51,11.70
2012,05,17,07,52,11.70
2012,05,17,07,53,11.70
2012,05,17,07,54,11.80
2012,05,17,07,55,11.80
2012,05,17,07,56,11.70
2012,05,17,07,57,11.70
2012,05,17,07,58,11.70
2012,05,17,07,59,11.60
2012,05,17,08,00,11.60
2012,05,17,08,01,11.60
2012,05,17,08,02,11.50
2012,05,17,08,03,11.40
2012,05,17,08,04,11.40
2012,05,17,08,05,11.40
2012,05,17,08,06,11.40
2012,05,17,08,07,11.30
2012,05,17,08,08,11.30
2012,05,17,08,09,11.40
2012,05,17,08,10,11.40
2012,05,17,08,11,11.40
2012,05,17,08,12,11.40
2012,05,17,08,13,11.40
2012,05,17,08,14,11.40
2012,05,17,08,15,11.40
2012,05,17,08,16,11.50
2012,05,17,08,17,11.60
2012,05,17,08,18,11.40
2012,05,17,08,19,11.50
2012,05,17,08,20,11.60
2012,05,17,08,21,11.60
2012,05,17,08,22,11.60
2012,05,17,08,23,11.60
2012,05,17,08,24,11.70
2012,05,17,08,25,11.70
2012,05,17,08,26,11.80
2012,05,17,08,27,11.80
2012,05,17,08,28,11.80
2012,05,17,08,29,11.90
2012,05,17,08,30,12.00
2012,05,17,08,31,12.00
2012,05,17,08,32,12.00
2012,05,17,08,33,12.00
2012,05,17,08,34,12.10
2012,05,17,08,35,12.10
2012,05,17,08,36,12.10
2012,05,17,08,37,12.00
2012,05,17,08,38,12.00
2012,05,17,08,39,12.00
2012,05,17,08,40,12.00
2012,05,17,08,41,12.00
2012,05,17,08,42,12.10
2012,05,17,08,43,12.10
2012,05,17,08,44,12.20
2012,05,17,08,45,12.30
2012,05,17,08,46,12.30
2012,05,17,08,47,12.30
2012,05,17,08,48,12.30
2012,05,17,08,49,12.20
2012,05,17,08,50,12.20
2012,05,17,08,51,12.20
2012,05,17,08,52,12.20
2012,05,17,08,53,12.10
2012,05,17,08,54,12.10
2012,05,17,08,55,12.10
2012,05,17,08,56,12.20
2012,05,17,08,57,12.20
2012,05,17,08,58,12.20
2012,05,17,08,59,12.30
2012,05,17,09,00,12.30
2012,05,17,09,01,12.30
2012,05,17,09,02,12.30
2012,05,17,09,03,12.30
2012,05,17,09,04,12.20
2012,05,17,09,05,12.20
2012,05,17,09,06,12.20
2012,05,17,09,07,12.20
2012,05,17,09,08,12.20
2012,05,17,09,09,12.20
2012,05,17,09,10,12.20
2012,05,17,09,11,12.20
2012,05,17,09,12,12.10
2012,05,17,09,13,12.10
2012,05,17,09,14,12.10
2012,05,17,09,15,12.10
2012,05,17,09,16,12.20
2012,05,17,09,17,12.20
2012,05,17,09,18,12.20
2012,05,17,09,19,12.20
2012,05,17,09,20,12.30
2012,05,17,09,21,12.30
2012,05,17,09,22,12.30
2012,05,17,09,23,12.30
2012,05,17,09,24,12.30
2012,05,17,09,25,12.30
2012,05,17,09,26,12.40
2012,05,17,09,27,12.40
2012,05,17,09,28,12.40
2012,05,17,09,29,12.40
2012,05,17,09,30,12.40
2012,05,17,09,31,12.40
2012,05,17,09,32,12.40
2012,05,17,09,33,12.40
2012,05,17,09,34,12.40
2012,05,17,09,35,12.40
2012,05,17,09,36,12.50
2012,05,17,09,37,12.50
2012,05,17,09,38,12.50
2012,05,17,09,39,12.50
2012,05,17,09,40,12.50
2012,05,17,09,41,12.60
2012,05,17,09,42,12.60
2012,05,17,09,43,12.60
2012,05,17,09,44,12.60
2012,05,17,09,45,12.70
2012,05,17,09,46,12.70
2012,05,17,09,47,12.70
2012,05,17,09,48,12.80
2012,05,17,09,49,12.80
2012,05,17,09,50,12.80
2012,05,17,09,51,12.70
2012,05,17,09,52,12.70
2012,05,17,09,53,12.70
2012,05,17,09,54,12.70
2012,05,17,09,55,12.70
2012,05,17,09,56,12.80
2012,05,17,09,57,12.80
2012,05,17,09,58,12.80
2012,05,17,09,59,12.70
2012,05,17,10,00,12.60
2012,05,17,10,01,12.60
2012,05,17,10,02,12.60
2012,05,17,10,03,12.50
2012,05,17,10,04,12.60
2012,05,17,10,05,12.60
2012,05,17,10,06,12.60
2012,05,17,10,07,12.60
2012,05,17,10,08,12.60
2012,05,17,10,09,12.70
2012,05,17,10,10,12.60
2012,05,17,10,11,12.70
2012,05,17,10,12,12.70
2012,05,17,10,13,12.60
2012,05,17,10,14,12.70
2012,05,17,10,15,12.70
2012,05,17,10,16,12.80
2012,05,17,10,17,12.80
2012,05,17,10,18,12.80
2012,05,17,10,19,12.80
2012,05,17,10,20,12.80
2012,05,17,10,21,12.90
2012,05,17,10,22,12.90
2012,05,17,10,23,12.90
2012,05,17,10,24,12.80
2012,05,17,10,25,12.80
2012,05,17,10,26,12.80
2012,05,17,10,27,12.80
2012,05,17,10,28,12.80
2012,05,17,10,29,12.80
2012,05,17,10,30,12.90
2012,05,17,10,31,12.90
2012,05,17,10,32,13.00
2012,05,17,10,33,13.00
2012,05,17,10,34,13.10
2012,05,17,10,35,13.10
2012,05,17,10,36,13.20
2012,05,17,10,37,13.30
2012,05,17,10,38,13.30
2012,05,17,10,39,13.30
2012,05,17,10,40,13.30
2012,05,17,10,41,13.20
2012,05,17,10,42,13.10
2012,05,17,10,43,13.00
2012,05,17,10,44,13.00
2012,05,17,10,45,12.90
2012,05,17,10,46,12.90
2012,05,17,10,47,12.90
2012,05,17,10,48,12.90
2012,05,17,10,49,12.90
2012,05,17,10,50,12.80
2012,05,17,10,51,12.80
2012,05,17,10,52,12.80
2012,05,17,10,53,12.80
2012,05,17,10,54,12.90
2012,05,17,10,55,12.90
2012,05,17,10,56,13.00
2012,05,17,10,57,13.10
2012,05,17,10,58,13.20
2012,05,17,10,59,13.30
2012,05,17,11,00,13.30
2012,05,17,11,01,13.30
2012,05,17,11,02,13.30
2012,05,17,11,03,13.40
2012,05,17,11,04,13.50
2012,05,17,11,05,13.50
2012,05,17,11,06,13.40
2012,05,17,11,07,13.40
2012,05,17,11,08,13.50
2012,05,17,11,09,13.50
2012,05,17,11,10,13.40
2012,05,17,11,11,13.50
2012,05,17,11,12,13.50
2012,05,17,11,13,13.60
2012,05,17,11,14,13.60
2012,05,17,11,15,13.60
2012,05,17,11,16,13.60
2012,05,17,11,17,13.60
2012,05,17,11,18,13.60
2012,05,17,11,19,13.60
2012,05,17,11,20,13.70
2012,05,17,11,21,13.70
2012,05,17,11,22,13.70
2012,05,17,11,23,13.70
2012,05,17,11,24,13.70
2012,05,17,11,25,13.70
2012,05,17,11,26,13.70
2012,05,17,11,27,13.70
2012,05,17,11,28,13.70
2012,05,17,11,29,13.70
2012,05,17,11,30,13.70
2012,05,17,11,31,13.70
2012,05,17,11,32,13.70
2012,05,17,11,33,13.70
2012,05,17,11,34,13.80
2012,05,17,11,35,13.80
2012,05,17,11,36,13.80
2012,05,17,11,37,13.80
2012,05,17,11,38,13.80
2012,05,17,11,39,13.80
2012,05,17,11,40,13.90
2012,05,17,11,41,13.90
2012,05,17,11,42,13.90
2012,05,17,11,43,13.90
2012,05,17,11,44,14.00
2012,05,17,11,45,14.00
2012,05,17,11,46,14.10
2012,05,17,11,47,14.10
2012,05,17,11,48,14.10
2012,05,17,11,49,14.10
2012,05,17,11,50,14.20
2012,05,17,11,51,14.30
2012,05,17,11,52,14.40
2012,05,17,11,53,14.40
2012,05,17,11,54,14.50
2012,05,17,11,55,14.50
2012,05,17,11,56,14.50
2012,05,17,11,57,14.50
2012,05,17,11,58,14.50
2012,05,17,11,59,14.40
2012,05,17,12,00,14.50
2012,05,17,12,01,14.50
2012,05,17,12,02,14.40
2012,05,17,12,03,14.40
2012,05,17,12,04,14.40
2012,05,17,12,05,14.40
2012,05,17,12,06,14.40
2012,05,17,12,07,14.50
2012,05,17,12,08,14.40
2012,05,17,12,09,14.50
2012,05,17,12,10,14.50
2012,05,17,12,11,14.60
2012,05,17,12,12,14.60
2012,05,17,12,13,14.60
2012,05,17,12,14,14.60
2012,05,17,12,15,14.60
2012,05,17,12,16,14.60
2012,05,17,12,17,14.60
2012,05,17,12,18,14.60
2012,05,17,12,19,14.60
2012,05,17,12,20,14.60
2012,05,17,12,21,14.60
2012,05,17,12,22,14.60
2012,05,17,12,23,14.70
2012,05,17,12,24,14.70
2012,05,17,12,25,14.80
2012,05,17,12,26,14.80
2012,05,17,12,27,14.80
2012,05,17,12,28,14.80
2012,05,17,12,29,14.80
2012,05,17,12,30,14.80
2012,05,17,12,31,14.80
2012,05,17,12,32,14.80
2012,05,17,12,33,14.80
2012,05,17,12,34,14.80
2012,05,17,12,35,14.80
2012,05,17,12,36,14.80
2012,05,17,12,37,14.90
2012,05,17,12,38,14.90
2012,05,17,12,39,14.90
2012,05,17,12,40,14.80
2012,05,17,12,41,14.80
2012,05,17,12,42,14.80
2012,05,17,12,43,14.90
2012,05,17,12,44,14.70
2012,05,17,12,45,14.60
2012,05,17,12,46,14.60
2012,05,17,12,47,14.60
2012,05,17,12,48,14.70
2012,05,17,12,49,14.70
2012,05,17,12,50,14.70
2012,05,17,12,51,14.70
2012,05,17,12,52,14.70
2012,05,17,12,53,14.60
2012,05,17,12,54,14.50
2012,05,17,12,55,14.50
2012,05,17,12,56,14.50
2012,05,17,12,57,14.60
2012,05,17,12,58,14.60
2012,05,17,12,59,14.60
2012,05,17,13,00,14.60
2012,05,17,13,01,14.60
2012,05,17,13,02,14.70
2012,05,17,13,03,14.70
2012,05,17,13,04,14.70
2012,05,17,13,05,14.70
2012,05,17,13,06,14.70
2012,05,17,13,07,14.80
2012,05,17,13,08,14.80
2012,05,17,13,09,14.80
2012,05,17,13,10,14.80
2012,05,17,13,11,14.80
2012,05,17,13,12,14.80
2012,05,17,13,13,14.80
2012,05,17,13,14,14.90
2012,05,17,13,15,15.00
2012,05,17,13,16,15.10
2012,05,17,13,17,15.10
2012,05,17,13,18,15.20
2012,05,17,13,19,15.30
2012,05,17,13,20,15.30
2012,05,17,13,21,15.30
2012,05,17,13,22,15.20
2012,05,17,13,23,15.10
2012,05,17,13,24,15.00
2012,05,17,13,25,15.00
2012,05,17,13,26,15.10
2012,05,17,13,27,15.00
2012,05,17,13,28,14.90
2012,05,17,13,29,14.90
2012,05,17,13,30,14.80
2012,05,17,13,31,14.80
2012,05,17,13,32,14.90
2012,05,17,13,33,14.90
2012,05,17,13,34,15.00
2012,05,17,13,35,15.10
2012,05,17,13,36,15.10
2012,05,17,13,37,15.10
2012,05,17,13,38,15.20
2012,05,17,13,39,15.20
2012,05,17,13,40,15.30
2012,05,17,13,41,15.30
2012,05,17,13,42,15.40
2012,05,17,13,43,15.40
2012,05,17,13,44,15.40
2012,05,17,13,45,15.50
2012,05,17,13,46,15.40
2012,05,17,13,47,15.30
2012,05,17,13,48,15.30
2012,05,17,13,49,15.30
2012,05,17,13,50,15.30
2012,05,17,13,51,15.40
2012,05,17,13,52,15.40
2012,05,17,13,53,15.50
2012,05,17,13,54,15.60
2012,05,17,13,55,15.60
2012,05,17,13,56,15.60
2012,05,17,13,57,15.60
2012,05,17,13,58,15.50
2012,05,17,13,59,15.50
2012,05,17,14,00,15.50
2012,05,17,14,01,15.50
2012,05,17,14,02,15.50
2012,05,17,14,03,15.60
2012,05,17,14,04,15.60
2012,05,17,14,05,15.50
2012,05,17,14,06,15.40
2012,05,17,14,07,15.30
2012,05,17,14,08,15.30
2012,05,17,14,09,15.20
2012,05,17,14,10,15.10
2012,05,17,14,11,15.10
2012,05,17,14,12,15.10
2012,05,17,14,13,15.10
2012,05,17,14,14,15.00
2012,05,17,14,15,15.00
2012,05,17,14,16,15.00
2012,05,17,14,17,15.00
2012,05,17,14,18,15.10
2012,05,17,14,19,15.30
2012,05,17,14,20,15.30
2012,05,17,14,21,15.50
2012,05,17,14,22,15.60
2012,05,17,14,23,15.70
2012,05,17,14,24,15.80
2012,05,17,14,25,15.80
2012,05,17,14,26,15.80
2012,05,17,14,27,15.80
2012,05,17,14,28,15.90
2012,05,17,14,29,15.90
2012,05,17,14,30,16.00
2012,05,17,14,31,16.10
2012,05,17,14,32,16.10
2012,05,17,14,33,16.20
2012,05,17,14,34,16.30
2012,05,17,14,35,16.20
2012,05,17,14,36,16.20
2012,05,17,14,37,16.20
2012,05,17,14,38,16.20
2012,05,17,14,39,16.30
2012,05,17,14,40,16.30
2012,05,17,14,41,16.30
2012,05,17,14,42,16.30
2012,05,17,14,43,16.30
2012,05,17,14,44,16.20
2012,05,17,14,45,16.20
2012,05,17,14,46,16.20
2012,05,17,14,47,16.20
2012,05,17,14,48,16.10
2012,05,17,14,49,16.10
2012,05,17,14,50,16.10
2012,05,17,14,51,16.20
2012,05,17,14,52,16.20
2012,05,17,14,53,16.00
2012,05,17,14,54,15.80
2012,05,17,14,55,15.80
2012,05,17,14,56,15.80
2012,05,17,14,57,15.90
2012,05,17,14,58,16.00
2012,05,17,14,59,16.10
2012,05,17,15,00,16.10
2012,05,17,15,01,16.10
2012,05,17,15,02,16.10
2012,05,17,15,03,16.00
2012,05,17,15,04,15.90
2012,05,17,15,05,15.80
2012,05,17,15,06,15.80
2012,05,17,15,07,15.80
2012,05,17,15,08,15.70
2012,05,17,15,09,15.60
2012,05,17,15,10,15.60
2012,05,17,15,11,15.70
2012,05,17,15,12,15.70
2012,05,17,15,13,15.80
2012,05,17,15,14,15.80
2012,05,17,15,15,15.80
2012,05,17,15,16,15.90
2012,05,17,15,17,16.00
2012,05,17,15,18,16.10
2012,05,17,15,19,16.10
2012,05,17,15,20,16.10
2012,05,17,15,21,16.00
2012,05,17,15,22,15.90
2012,05,17,15,23,15.80
2012,05,17,15,24,15.80
2012,05,17,15,25,15.80
2012,05,17,15,26,15.80
2012,05,17,15,27,15.80
2012,05,17,15,28,15.90
2012,05,17,15,29,16.10
2012,05,17,15,30,16.20
2012,05,17,15,31,16.40
2012,05,17,15,32,16.50
2012,05,17,15,33,16.70
2012,05,17,15,34,16.70
2012,05,17,15,35,16.60
2012,05,17,15,36,16.60
2012,05,17,15,37,16.60
2012,05,17,15,38,16.60
2012,05,17,15,39,16.60
2012,05,17,15,40,16.50
2012,05,17,15,41,16.40
2012,05,17,15,42,16.30
2012,05,17,15,43,16.30
2012,05,17,15,44,16.20
2012,05,17,15,45,16.10
2012,05,17,15,46,16.20
2012,05,17,15,47,16.30
2012,05,17,15,48,16.40
2012,05,17,15,49,16.50
2012,05,17,15,50,16.70
2012,05,17,15,51,16.80
2012,05,17,15,52,16.90
2012,05,17,15,53,16.80
2012,05,17,15,54,16.70
2012,05,17,15,55,16.70
2012,05,17,15,56,16.70
2012,05,17,15,57,16.60
2012,05,17,15,58,16.50
2012,05,17,15,59,16.40
2012,05,17,16,00,16.30
2012,05,17,16,01,16.30
2012,05,17,16,02,16.30
2012,05,17,16,03,16.40
2012,05,17,16,04,16.40
2012,05,17,16,05,16.40
2012,05,17,16,06,16.50
2012,05,17,16,07,16.60
2012,05,17,16,08,16.70
2012,05,17,16,09,16.70
2012,05,17,16,10,16.70
2012,05,17,16,11,16.70
2012,05,17,16,12,16.70
2012,05,17,16,13,16.70
2012,05,17,16,14,16.70
2012,05,17,16,15,16.60
2012,05,17,16,16,16.60
2012,05,17,16,17,16.60
2012,05,17,16,18,16.60
2012,05,17,16,19,16.60
2012,05,17,16,20,16.60
2012,05,17,16,21,16.70
2012,05,17,16,22,16.60
2012,05,17,16,23,16.60
2012,05,17,16,24,16.60
2012,05,17,16,25,16.60
2012,05,17,16,26,16.40
2012,05,17,16,27,16.40
2012,05,17,16,28,16.50
2012,05,17,16,29,16.50
2012,05,17,16,30,16.40
2012,05,17,16,31,16.50
2012,05,17,16,32,16.50
2012,05,17,16,33,16.60
2012,05,17,16,34,16.60
2012,05,17,16,35,16.40
2012,05,17,16,36,16.40
2012,05,17,16,37,16.40
2012,05,17,16,38,16.40
2012,05,17,16,39,16.40
2012,05,17,16,40,16.50
2012,05,17,16,41,16.60
2012,05,17,16,42,16.50
2012,05,17,16,43,16.40
2012,05,17,16,44,16.40
2012,05,17,16,45,16.40
2012,05,17,16,46,16.40
2012,05,17,16,47,16.40
2012,05,17,16,48,16.40
2012,05,17,16,49,16.40
2012,05,17,16,50,16.40
2012,05,17,16,51,16.40
2012,05,17,16,52,16.40
2012,05,17,16,53,16.30
2012,05,17,16,54,16.30
2012,05,17,16,55,16.30
2012,05,17,16,56,16.30
2012,05,17,16,57,16.30
2012,05,17,16,58,16.20
2012,05,17,16,59,16.10
2012,05,17,17,00,15.90
2012,05,17,17,01,15.80
2012,05,17,17,02,15.80
2012,05,17,17,03,15.80
2012,05,17,17,04,15.80
2012,05,17,17,05,15.70
2012,05,17,17,06,15.60
2012,05,17,17,07,15.60
2012,05,17,17,08,15.70
2012,05,17,17,09,15.70
2012,05,17,17,10,15.80
2012,05,17,17,11,15.80
2012,05,17,17,12,15.90
2012,05,17,17,13,15.90
2012,05,17,17,14,16.00
2012,05,17,17,15,16.10
2012,05,17,17,16,16.10
2012,05,17,17,17,16.00
2012,05,17,17,18,15.90
2012,05,17,17,19,15.90
2012,05,17,17,20,15.90
2012,05,17,17,21,15.80
2012,05,17,17,22,15.80
2012,05,17,17,23,15.80
2012,05,17,17,24,15.80
2012,05,17,17,25,15.70
2012,05,17,17,26,15.70
2012,05,17,17,27,15.60
2012,05,17,17,28,15.50
2012,05,17,17,29,15.50
2012,05,17,17,30,15.50
2012,05,17,17,31,15.40
2012,05,17,17,32,15.30
2012,05,17,17,33,15.20
2012,05,17,17,34,15.20
2012,05,17,17,35,15.10